GW3809 Weather Reports


Display with metric or nautical units.
time (UTC)temp
F
wind
direction
speed
MPH
gust
MPH
rain 1hr
in
rain 24hr
in
rain mn
in
humidity
%
barometer
mb
20260504043823 71 128 3.0 5.0 0.00 0.00 0.00 74 1019.4
20260504043320 71 137 4.0 9.0 0.00 0.00 0.00 74 1019.3
20260504042818 71 155 4.0 7.0 0.00 0.00 0.00 73 1019.7
20260504042314 71 122 9.0 10.0 0.00 0.00 0.00 73 1019.5
20260504041810 71 133 4.0 10.0 0.00 0.00 0.00 73 1019.5
20260504041306 71 134 9.0 10.0 0.00 0.00 0.00 72 1019.4
20260504040803 71 128 7.0 9.0 0.00 0.00 0.00 72 1019.4
20260504040300 71 139 3.0 9.0 0.00 0.00 0.00 72 1019.9
20260504035756 71 147 6.0 9.0 0.00 0.00 0.00 71 1019.6
20260504035253 72 120 5.0 11.0 0.00 0.00 0.00 71 1019.7
20260504034751 72 148 6.0 8.0 0.00 0.00 0.00 71 1019.6
20260504034248 72 132 10.0 11.0 0.00 0.00 0.00 70 1020.0
20260504033745 72 126 6.0 9.0 0.00 0.00 0.00 70 1019.7
20260504033243 72 137 5.0 8.0 0.00 0.00 0.00 70 1019.6
20260504032739 72 124 9.0 10.0 0.00 0.00 0.00 69 1019.5
20260504032237 72 136 5.0 11.0 0.00 0.00 0.00 69 1019.6
20260504031733 72 124 8.0 12.0 0.00 0.00 0.00 68 1019.6
20260504031231 72 139 7.0 12.0 0.00 0.00 0.00 68 1019.4
20260504030726 73 136 5.0 9.0 0.00 0.00 0.00 68 1019.5
20260504030224 73 126 5.0 11.0 0.00 0.00 0.00 67 1019.5
20260504025720 73 128 8.0 11.0 0.00 0.00 0.00 67 1019.5
20260504025217 73 126 4.0 9.0 0.00 0.00 0.00 67 1019.2
20260504024714 73 145 8.0 11.0 0.00 0.00 0.00 66 1019.1
20260504024211 73 117 4.0 12.0 0.00 0.00 0.00 66 1019.2
20260504023708 73 133 8.0 8.0 0.00 0.00 0.00 65 1019.1
20260504023203 73 130 10.0 11.0 0.00 0.00 0.00 65 1019.1
20260504022700 73 135 9.0 12.0 0.00 0.00 0.00 64 1018.9
20260504022155 74 127 9.0 13.0 0.00 0.00 0.00 63 1018.9
20260504021654 74 121 6.0 14.0 0.00 0.00 0.00 63 1018.7
20260504021150 74 137 8.0 13.0 0.00 0.00 0.00 62 1018.9
20260504020647 74 138 7.0 12.0 0.00 0.00 0.00 62 1018.7
20260504020143 74 138 6.0 12.0 0.00 0.00 0.00 61 1018.8
20260504015640 75 133 8.0 10.0 0.00 0.00 0.00 60 1018.6
20260504015136 75 119 7.0 14.0 0.00 0.00 0.00 60 1018.7
20260504014632 75 137 7.0 11.0 0.00 0.00 0.00 59 1018.7
20260504014130 75 114 7.0 13.0 0.00 0.00 0.00 59 1018.6
20260504013627 75 114 7.0 9.0 0.00 0.00 0.00 58 1018.5
20260504013124 75 134 5.0 12.0 0.00 0.00 0.00 58 1018.2
20260504012621 75 126 4.0 9.0 0.00 0.00 0.00 57 1018.2
20260504012119 76 98 5.0 11.0 0.00 0.00 0.00 57 1018.2
20260504011616 76 133 8.0 13.0 0.00 0.00 0.00 57 1018.2
20260504011112 76 137 9.0 14.0 0.00 0.00 0.00 56 1018.4
20260504010608 76 126 9.0 11.0 0.00 0.00 0.00 56 1018.4
20260504010104 76 128 8.0 15.0 0.00 0.00 0.00 55 1018.4
20260504005601 77 130 7.0 16.0 0.00 0.00 0.00 55 1018.3
20260504005058 77 134 8.0 11.0 0.00 0.00 0.00 55 1018.5
20260504004556 77 124 8.0 13.0 0.00 0.00 0.00 54 1018.4
20260504004053 77 136 6.0 12.0 0.00 0.00 0.00 54 1018.1
20260504003549 77 151 5.0 14.0 0.00 0.00 0.00 54 1018.1
20260504003046 78 124 12.0 16.0 0.00 0.00 0.00 53 1018.2
20260504002542 78 137 11.0 16.0 0.00 0.00 0.00 53 1018.1
20260504002040 78 118 6.0 9.0 0.00 0.00 0.00 53 1018.3
20260504001538 78 127 6.0 15.0 0.00 0.00 0.00 53 1018.1
20260504001033 79 137 9.0 12.0 0.00 0.00 0.00 52 1018.3
20260504000531 79 102 4.0 9.0 0.00 0.00 0.00 52 1018.2
20260504000028 79 110 5.0 11.0 0.00 0.00 0.00 52 1018.1
20260503235526 79 121 4.0 10.0 0.00 0.00 0.00 52 1017.9
20260503235023 79 132 7.0 10.0 0.00 0.00 0.00 52 1017.9
20260503234520 79 137 6.0 14.0 0.00 0.00 0.00 52 1018.0
20260503234014 79 129 5.0 15.0 0.00 0.00 0.00 52 1017.9
20260503233509 80 124 10.0 15.0 0.00 0.00 0.00 51 1018.0
20260503233005 80 131 7.0 9.0 0.00 0.00 0.00 51 1018.1
20260503232502 80 128 9.0 13.0 0.00 0.00 0.00 50 1018.1
20260503232000 80 135 4.0 9.0 0.00 0.00 0.00 50 1018.2
20260503231457 81 139 11.0 14.0 0.00 0.00 0.00 49 1018.2
20260503230954 81 136 5.0 7.0 0.00 0.00 0.00 50 1018.1
20260503230450 81 136 8.0 11.0 0.00 0.00 0.00 50 1018.2
20260503225948 81 138 6.0 13.0 0.00 0.00 0.00 49 1018.3
20260503225445 82 120 6.0 12.0 0.00 0.00 0.00 49 1018.2
20260503224940 81 113 5.0 13.0 0.00 0.00 0.00 49 1018.3
20260503224437 81 128 4.0 8.0 0.00 0.00 0.00 49 1018.5
20260503223935 81 113 4.0 7.0 0.00 0.00 0.00 50 1018.2
20260503223433 81 132 7.0 10.0 0.00 0.00 0.00 50 1018.4
20260503222928 81 137 6.0 9.0 0.00 0.00 0.00 49 1018.6
20260503222427 82 143 5.0 13.0 0.00 0.00 0.00 48 1018.6
20260503221925 81 108 3.0 11.0 0.00 0.00 0.00 49 1018.7
20260503221423 82 137 9.0 13.0 0.00 0.00 0.00 47 1018.5
20260503220919 82 148 12.0 15.0 0.00 0.00 0.00 47 1018.7
20260503220415 82 133 5.0 11.0 0.00 0.00 0.00 47 1018.7
20260503215913 82 122 6.0 9.0 0.00 0.00 0.00 48 1019.0
20260503215409 82 128 13.0 19.0 0.00 0.00 0.00 47 1018.9
20260503214907 82 134 8.0 11.0 0.00 0.00 0.00 48 1019.2
20260503214405 82 137 10.0 14.0 0.00 0.00 0.00 46 1019.3
20260503213902 82 182 3.0 7.0 0.00 0.00 0.00 47 1019.3
20260503213400 82 144 8.0 11.0 0.00 0.00 0.00 47 1019.5
20260503212856 82 148 7.0 11.0 0.00 0.00 0.00 46 1019.3
20260503212354 82 167 2.0 6.0 0.00 0.00 0.00 46 1019.5
20260503211850 82 157 7.0 9.0 0.00 0.00 0.00 47 1019.3
20260503211347 82 147 3.0 6.0 0.00 0.00 0.00 48 1019.5
20260503210843 82 142 6.0 10.0 0.00 0.00 0.00 47 1019.5
20260503210340 81 143 5.0 9.0 0.00 0.00 0.00 47 1019.5
20260503205835 82 143 9.0 12.0 0.00 0.00 0.00 47 1019.6
20260503205332 83 135 6.0 7.0 0.00 0.00 0.00 46 1019.5
20260503204828 82 89 4.0 11.0 0.00 0.00 0.00 47 1019.8
20260503204326 82 68 4.0 6.0 0.00 0.00 0.00 48 1019.7
20260503203823 82 122 8.0 10.0 0.00 0.00 0.00 47 1020.0
20260503203321 82 138 8.0 12.0 0.00 0.00 0.00 45 1020.1
20260503202817 82 150 4.0 4.0 0.00 0.00 0.00 45 1020.0
20260503202315 81 36 2.0 6.0 0.00 0.00 0.00 47 1020.4
20260503201813 81 134 5.0 10.0 0.00 0.00 0.00 46 1020.6
20260503201310 82 159 5.0 7.0 0.00 0.00 0.00 46 1020.8
20260503200808 82 97 2.0 7.0 0.00 0.00 0.00 46 1020.8
20260503200303 81 180 5.0 8.0 0.00 0.00 0.00 47 1021.0
20260503195801 81 137 7.0 10.0 0.00 0.00 0.00 45 1021.0
20260503195257 82 106 2.0 6.0 0.00 0.00 0.00 45 1021.3
20260503194755 82 143 5.0 6.0 0.00 0.00 0.00 45 1021.4
20260503194250 81 141 6.0 13.0 0.00 0.00 0.00 45 1021.5
20260503193746 81 156 10.0 14.0 0.00 0.00 0.00 45 1021.3
20260503193243 81 158 6.0 8.0 0.00 0.00 0.00 47 1021.4
20260503192738 80 171 3.0 7.0 0.00 0.00 0.00 46 1021.5
20260503192233 81 141 4.0 8.0 0.00 0.00 0.00 46 1021.5
20260503191731 81 180 3.0 6.0 0.00 0.00 0.00 48 1021.7
20260503191228 80 95 0.0 7.0 0.00 0.00 0.00 46 1021.7
20260503190725 80 171 0.0 5.0 0.00 0.00 0.00 47 1021.9
20260503190221 81 66 4.0 9.0 0.00 0.00 0.00 45 1021.9
20260503185719 81 197 4.0 10.0 0.00 0.00 0.00 47 1021.8
20260503185214 81 155 7.0 10.0 0.00 0.00 0.00 47 1022.0
20260503184709 80 51 2.0 6.0 0.00 0.00 0.00 45 1022.2
20260503184206 81 2 2.0 7.0 0.00 0.00 0.00 45 1022.1
20260503183702 80 134 7.0 10.0 0.00 0.00 0.00 46 1022.3
20260503183159 80 60 3.0 6.0 0.00 0.00 0.00 45 1022.5
20260503182657 80 148 6.0 7.0 0.00 0.00 0.00 47 1022.7
20260503182155 81 186 3.0 8.0 0.00 0.00 0.00 47 1022.7
20260503181652 80 142 11.0 11.0 0.00 0.00 0.00 48 1022.9
20260503181149 80 137 4.0 5.0 0.00 0.00 0.00 47 1022.8
20260503180646 80 125 8.0 13.0 0.00 0.00 0.00 46 1022.8
20260503180144 80 110 1.0 7.0 0.00 0.00 0.00 47 1022.9
20260503175640 79 156 3.0 8.0 0.00 0.00 0.00 51 1022.9
20260503175138 80 142 8.0 11.0 0.00 0.00 0.00 49 1023.2
20260503174634 79 146 5.0 5.0 0.00 0.00 0.00 52 1023.0
20260503174131 79 56 3.0 7.0 0.00 0.00 0.00 51 1023.3
20260503173626 79 142 6.0 6.0 0.00 0.00 0.00 52 1023.1
20260503173123 79 78 5.0 7.0 0.00 0.00 0.00 47 1023.4
20260503172620 79 105 8.0 12.0 0.00 0.00 0.00 48 1023.6
20260503172117 79 133 6.0 7.0 0.00 0.00 0.00 50 1023.5
20260503171614 79 151 6.0 11.0 0.00 0.00 0.00 51 1023.4
20260503171111 78 101 4.0 7.0 0.00 0.00 0.00 50 1023.7
20260503170608 79 263 0.0 5.0 0.00 0.00 0.00 54 1023.8
20260503170104 78 56 2.0 10.0 0.00 0.00 0.00 52 1023.6
20260503150954 75 59 4.0 5.0 0.00 0.00 0.00 59 1023.8
20260503150451 75 47 2.0 3.0 0.00 0.00 0.00 61 1023.9
20260503131343 66 355 2.0 4.0 0.00 0.00 0.00 75 1023.2
20260503130841 66 335 2.0 4.0 0.00 0.00 0.00 76 1023.1
20260503130338 65 16 2.0 4.0 0.00 0.00 0.00 79 1023.0
20260503110732 60 128 0.0 2.0 0.00 0.00 0.00 86 1022.2
20260503110229 60 272 0.0 2.0 0.00 0.00 0.00 86 1022.2
20260503100155 62 324 1.0 2.0 0.00 0.00 0.00 84 1022.1
20260503090115 63 23 0.0 2.0 0.00 0.00 0.00 81 1022.3
20260503081545 64 269 0.0 2.0 0.00 0.00 0.00 79 1022.5
20260503081042 63 313 0.0 1.0 0.00 0.00 0.00 79 1022.7
20260503080538 63 269 2.0 3.0 0.00 0.00 0.00 80 1022.8
20260503072512 63 273 1.0 2.0 0.00 0.00 0.00 81 1022.8
20260503072009 63 221 0.0 1.0 0.00 0.00 0.00 80 1022.8
20260503071505 63 80 0.0 1.0 0.00 0.00 0.00 80 1022.7
20260503071001 63 261 1.0 1.0 0.00 0.00 0.00 80 1022.7
20260503070458 64 26 0.0 1.0 0.00 0.00 0.00 80 1022.8
20260503054917 65 294 0.0 1.0 0.00 0.00 0.00 76 1023.5
20260503054413 66 243 0.0 2.0 0.00 0.00 0.00 76 1023.6
20260503053911 66 273 1.0 2.0 0.00 0.00 0.00 76 1023.6
20260503053409 66 316 0.0 2.0 0.00 0.00 0.00 76 1023.5
20260503052905 66 258 0.0 2.0 0.00 0.00 0.00 75 1023.3
20260503052403 66 249 2.0 2.0 0.00 0.00 0.00 75 1023.5
20260503051858 66 236 2.0 3.0 0.00 0.00 0.00 75 1023.5
20260503051354 66 285 1.0 2.0 0.00 0.00 0.00 75 1023.3
20260503050852 66 268 2.0 2.0 0.00 0.00 0.00 75 1023.4
20260503050348 66 239 0.0 2.0 0.00 0.00 0.00 75 1023.2
20260503045845 66 211 0.0 2.0 0.00 0.01 0.01 75 1023.3
20260503045343 66 271 2.0 3.0 0.00 0.01 0.01 74 1023.3
20260503044839 66 278 2.0 3.0 0.00 0.01 0.01 74 1023.3
20260503044337 66 292 0.0 2.0 0.00 0.01 0.01 74 1023.3